Time,TemperatureF,DewpointF,PressureIn,WindDirection,WindDirectionDegrees,WindSpeedMPH,WindSpeedGustMPH,Humidity,HourlyPrecipIn,Conditions,Clouds,dailyrainin,SoftwareType,DateUTC
2013-03-08 00:00:00,31.9,26.1,30.12,WNW,292,11.0,11.0,79,0.00,,,0.00,Wunderground v.1.15,2013-03-08 05:00:00,
2013-03-08 00:01:00,31.9,26.1,30.12,WNW,285,11.0,15.0,79,0.00,,,0.00,Wunderground v.1.15,2013-03-08 05:01:00,
2013-03-08 00:05:00,31.7,25.9,30.12,WNW,286,10.0,15.0,79,0.00,,,0.00,Wunderground v.1.15,2013-03-08 05:05:00,
2013-03-08 00:08:00,31.6,26.1,30.12,WNW,301,11.0,17.0,80,0.00,,,0.00,Wunderground v.1.15,2013-03-08 05:08:00,
2013-03-08 00:13:00,31.5,26.0,30.12,NW,308,11.0,21.0,80,0.00,,,0.00,Wunderground v.1.15,2013-03-08 05:13:00,
2013-03-08 00:18:00,31.4,25.9,30.12,NW,309,11.0,21.0,80,0.00,,,0.00,Wunderground v.1.15,2013-03-08 05:18:00,
2013-03-08 00:23:00,31.2,26.0,30.12,WNW,288,12.0,16.0,81,0.00,,,0.00,Wunderground v.1.15,2013-03-08 05:23:00,
2013-03-08 00:29:00,31.0,25.9,30.12,NNW,342,12.0,16.0,81,0.00,,,0.00,Wunderground v.1.15,2013-03-08 05:29:00,
2013-03-08 00:34:00,30.8,26.0,30.12,WNW,292,10.0,12.0,82,0.00,,,0.00,Wunderground v.1.15,2013-03-08 05:34:00,
2013-03-08 00:40:00,30.7,25.9,30.12,WNW,296,9.0,12.0,82,0.00,,,0.00,Wunderground v.1.15,2013-03-08 05:40:00,
2013-03-08 00:45:00,30.5,25.7,30.12,WNW,294,9.0,16.0,82,0.00,,,0.00,Wunderground v.1.15,2013-03-08 05:45:00,
2013-03-08 00:50:00,30.4,25.6,30.12,WNW,286,9.0,12.0,82,0.00,,,0.00,Wunderground v.1.15,2013-03-08 05:50:00,
2013-03-08 00:55:00,30.3,25.8,30.12,WNW,303,9.0,13.0,83,0.00,,,0.00,Wunderground v.1.15,2013-03-08 05:55:00,
2013-03-08 01:00:00,30.1,25.6,30.12,NNW,336,8.0,8.0,83,0.00,,,0.00,Wunderground v.1.15,2013-03-08 06:00:00,
2013-03-08 01:05:00,30.0,25.8,30.12,NNW,332,6.0,8.0,84,0.00,,,0.00,Wunderground v.1.15,2013-03-08 06:05:00,
2013-03-08 01:10:00,29.9,25.7,30.12,NW,304,6.0,6.0,84,0.00,,,0.00,Wunderground v.1.15,2013-03-08 06:10:00,
2013-03-08 01:15:00,29.8,25.6,30.12,NW,306,6.0,9.0,84,0.00,,,0.00,Wunderground v.1.15,2013-03-08 06:15:00,
2013-03-08 01:20:00,29.7,25.5,30.12,WNW,290,5.0,6.0,84,0.00,,,0.00,Wunderground v.1.15,2013-03-08 06:20:00,
2013-03-08 01:25:00,29.7,25.5,30.12,WNW,300,6.0,17.0,84,0.00,,,0.00,Wunderground v.1.15,2013-03-08 06:25:00,
2013-03-08 01:30:00,29.7,25.7,30.13,WNW,300,6.0,8.0,85,0.00,,,0.00,Wunderground v.1.15,2013-03-08 06:30:00,
2013-03-08 01:36:00,29.6,25.6,30.13,NW,325,6.0,10.0,85,0.00,,,0.00,Wunderground v.1.15,2013-03-08 06:36:00,
2013-03-08 01:42:00,29.4,25.4,30.13,NW,325,3.0,6.0,85,0.00,,,0.00,Wunderground v.1.15,2013-03-08 06:42:00,
2013-03-08 01:47:00,29.3,25.4,30.13,NW,325,1.0,6.0,85,0.00,,,0.00,Wunderground v.1.15,2013-03-08 06:47:00,
2013-03-08 01:52:00,29.2,25.3,30.13,NW,325,2.0,8.0,85,0.00,,,0.00,Wunderground v.1.15,2013-03-08 06:52:00,
2013-03-08 01:58:00,29.2,25.3,30.13,NW,325,3.0,8.0,85,0.00,,,0.00,Wunderground v.1.15,2013-03-08 06:58:00,
2013-03-08 02:03:00,29.0,25.3,30.13,NW,325,1.0,4.0,86,0.00,,,0.00,Wunderground v.1.15,2013-03-08 07:03:00,
2013-03-08 02:09:00,29.0,25.3,30.13,NW,325,1.0,4.0,86,0.00,,,0.00,Wunderground v.1.15,2013-03-08 07:09:00,
2013-03-08 02:14:00,28.9,25.2,30.13,NW,325,1.0,4.0,86,0.00,,,0.00,Wunderground v.1.15,2013-03-08 07:14:00,
2013-03-08 02:19:00,28.9,25.5,30.13,NW,325,1.0,4.0,87,0.00,,,0.00,Wunderground v.1.15,2013-03-08 07:19:00,
2013-03-08 02:24:00,28.8,25.4,30.13,NW,325,2.0,7.0,87,0.00,,,0.00,Wunderground v.1.15,2013-03-08 07:24:00,
2013-03-08 02:30:00,28.7,25.3,30.13,NW,325,2.0,2.0,87,0.00,,,0.00,Wunderground v.1.15,2013-03-08 07:30:00,
2013-03-08 02:35:00,28.7,25.3,30.13,NW,325,2.0,5.0,87,0.00,,,0.00,Wunderground v.1.15,2013-03-08 07:35:00,
2013-03-08 02:40:00,28.6,25.2,30.13,NW,325,3.0,3.0,87,0.00,,,0.00,Wunderground v.1.15,2013-03-08 07:40:00,
2013-03-08 02:45:00,28.5,25.1,30.13,NW,325,2.0,4.0,87,0.00,,,0.00,Wunderground v.1.15,2013-03-08 07:45:00,
2013-03-08 02:51:00,28.5,25.1,30.13,NW,325,4.0,10.0,87,0.00,,,0.00,Wunderground v.1.15,2013-03-08 07:51:00,
2013-03-08 02:56:00,28.5,25.1,30.13,NW,323,6.0,10.0,87,0.00,,,0.00,Wunderground v.1.15,2013-03-08 07:56:00,
2013-03-08 03:02:00,28.5,25.4,30.12,NW,323,5.0,6.0,88,0.00,,,0.00,Wunderground v.1.15,2013-03-08 08:02:00,
2013-03-08 03:07:00,28.4,25.3,30.12,WNW,286,5.0,10.0,88,0.00,,,0.00,Wunderground v.1.15,2013-03-08 08:07:00,
2013-03-08 03:12:00,28.3,25.2,30.12,WNW,294,7.0,8.0,88,0.00,,,0.00,Wunderground v.1.15,2013-03-08 08:12:00,
2013-03-08 03:17:00,28.2,25.4,30.12,WNW,294,8.0,13.0,89,0.00,,,0.00,Wunderground v.1.15,2013-03-08 08:17:00,
2013-03-08 03:22:00,28.1,25.3,30.12,WNW,294,8.0,10.0,89,0.00,,,0.00,Wunderground v.1.15,2013-03-08 08:22:00,
2013-03-08 03:27:00,28.0,25.2,30.12,WNW,301,8.0,12.0,89,0.00,,,0.00,Wunderground v.1.15,2013-03-08 08:27:00,
2013-03-08 03:33:00,28.0,25.2,30.12,WNW,300,9.0,9.0,89,0.00,,,0.00,Wunderground v.1.15,2013-03-08 08:33:00,
2013-03-08 03:38:00,27.9,25.1,30.12,WNW,297,8.0,9.0,89,0.00,,,0.00,Wunderground v.1.15,2013-03-08 08:38:00,
2013-03-08 03:43:00,27.9,25.3,30.12,WNW,287,8.0,8.0,90,0.00,,,0.00,Wunderground v.1.15,2013-03-08 08:43:00,
2013-03-08 03:48:00,27.8,25.2,30.12,WNW,292,8.0,11.0,90,0.00,,,0.00,Wunderground v.1.15,2013-03-08 08:48:00,
2013-03-08 03:53:00,27.7,25.2,30.12,WNW,293,9.0,11.0,90,0.00,,,0.00,Wunderground v.1.15,2013-03-08 08:53:00,
2013-03-08 03:58:00,27.6,25.1,30.13,NNW,331,9.0,13.0,90,0.00,,,0.00,Wunderground v.1.15,2013-03-08 08:58:00,
2013-03-08 04:03:00,27.6,25.1,30.13,NW,315,9.0,13.0,90,0.00,,,0.00,Wunderground v.1.15,2013-03-08 09:03:00,
2013-03-08 04:09:00,27.6,25.3,30.13,WNW,284,8.0,13.0,91,0.00,,,0.00,Wunderground v.1.15,2013-03-08 09:09:00,
2013-03-08 04:14:00,27.5,25.2,30.13,WNW,290,7.0,8.0,91,0.00,,,0.00,Wunderground v.1.15,2013-03-08 09:14:00,
2013-03-08 04:20:00,27.4,25.1,30.13,WNW,302,7.0,9.0,91,0.00,,,0.00,Wunderground v.1.15,2013-03-08 09:20:00,
2013-03-08 04:25:00,27.3,25.0,30.13,WNW,301,7.0,9.0,91,0.00,,,0.00,Wunderground v.1.15,2013-03-08 09:25:00,
2013-03-08 04:30:00,27.3,25.0,30.14,WNW,291,8.0,8.0,91,0.00,,,0.00,Wunderground v.1.15,2013-03-08 09:30:00,
2013-03-08 04:35:00,27.2,24.9,30.14,NW,306,8.0,10.0,91,0.00,,,0.00,Wunderground v.1.15,2013-03-08 09:35:00,
2013-03-08 04:41:00,27.2,24.9,30.14,NW,304,8.0,9.0,91,0.00,,,0.00,Wunderground v.1.15,2013-03-08 09:41:00,
2013-03-08 04:47:00,27.1,25.1,30.14,NW,304,8.0,9.0,92,0.00,,,0.00,Wunderground v.1.15,2013-03-08 09:47:00,
2013-03-08 04:53:00,27.1,25.1,30.14,NW,304,8.0,8.0,92,0.00,,,0.00,Wunderground v.1.15,2013-03-08 09:53:00,
2013-03-08 04:58:00,27.1,25.1,30.14,NW,304,6.0,8.0,92,0.00,,,0.00,Wunderground v.1.15,2013-03-08 09:58:00,
2013-03-08 05:03:00,27.0,25.0,30.14,NW,304,4.0,6.0,92,0.00,,,0.00,Wunderground v.1.15,2013-03-08 10:03:00,
2013-03-08 05:09:00,26.9,24.9,30.14,NW,304,5.0,12.0,92,0.00,,,0.00,Wunderground v.1.15,2013-03-08 10:09:00,
2013-03-08 05:14:00,26.8,24.8,30.14,NW,304,5.0,5.0,92,0.00,,,0.00,Wunderground v.1.15,2013-03-08 10:14:00,
2013-03-08 05:19:00,26.7,24.7,30.14,NW,304,5.0,8.0,92,0.00,,,0.00,Wunderground v.1.15,2013-03-08 10:19:00,
2013-03-08 05:24:00,26.6,24.6,30.14,NW,304,5.0,8.0,92,0.00,,,0.00,Wunderground v.1.15,2013-03-08 10:24:00,
2013-03-08 05:29:00,26.5,24.8,30.15,NW,304,2.0,8.0,93,0.00,,,0.00,Wunderground v.1.15,2013-03-08 10:29:00,
2013-03-08 05:35:00,26.4,24.4,30.15,NW,304,1.0,4.0,92,0.00,,,0.00,Wunderground v.1.15,2013-03-08 10:35:00,
2013-03-08 05:40:00,26.3,24.6,30.15,NW,304,1.0,1.0,93,0.00,,,0.00,Wunderground v.1.15,2013-03-08 10:40:00,
2013-03-08 05:46:00,26.2,24.5,30.15,NW,304,1.0,8.0,93,0.00,,,0.00,Wunderground v.1.15,2013-03-08 10:46:00,
2013-03-08 05:51:00,26.1,24.4,30.15,NW,304,4.0,5.0,93,0.00,,,0.00,Wunderground v.1.15,2013-03-08 10:51:00,
2013-03-08 05:56:00,26.0,24.3,30.15,NW,304,3.0,5.0,93,0.00,,,0.00,Wunderground v.1.15,2013-03-08 10:56:00,
2013-03-08 06:01:00,25.9,24.2,30.15,NW,304,3.0,6.0,93,0.00,,,0.00,Wunderground v.1.15,2013-03-08 11:01:00,
2013-03-08 06:06:00,25.8,24.1,30.15,NW,304,4.0,6.0,93,0.00,,,0.00,Wunderground v.1.15,2013-03-08 11:06:00,
2013-03-08 06:11:00,25.8,24.3,30.15,NW,304,2.0,4.0,94,0.00,,,0.00,Wunderground v.1.15,2013-03-08 11:11:00,
2013-03-08 06:17:00,25.6,24.1,30.16,NW,304,1.0,6.0,94,0.00,,,0.00,Wunderground v.1.15,2013-03-08 11:17:00,
2013-03-08 06:22:00,25.6,24.1,30.16,NW,304,2.0,4.0,94,0.00,,,0.00,Wunderground v.1.15,2013-03-08 11:22:00,
2013-03-08 06:27:00,25.6,24.1,30.17,NW,304,2.0,4.0,94,0.00,,,0.00,Wunderground v.1.15,2013-03-08 11:27:00,
2013-03-08 06:32:00,25.6,24.1,30.17,NW,304,1.0,3.0,94,0.00,,,0.00,Wunderground v.1.15,2013-03-08 11:32:00,
2013-03-08 06:37:00,25.6,24.1,30.17,NW,304,0.0,3.0,94,0.00,,,0.00,Wunderground v.1.15,2013-03-08 11:37:00,
2013-03-08 06:42:00,25.5,24.0,30.16,NW,304,2.0,5.0,94,0.00,,,0.00,Wunderground v.1.15,2013-03-08 11:42:00,
2013-03-08 06:47:00,25.3,23.8,30.16,NW,304,4.0,8.0,94,0.00,,,0.00,Wunderground v.1.15,2013-03-08 11:47:00,
2013-03-08 06:52:00,25.2,23.7,30.16,NW,304,3.0,5.0,94,0.00,,,0.00,Wunderground v.1.15,2013-03-08 11:52:00,
2013-03-08 06:58:00,25.1,23.6,30.16,NW,304,2.0,5.0,94,0.00,,,0.00,Wunderground v.1.15,2013-03-08 11:58:00,
2013-03-08 07:04:00,25.1,23.9,30.16,NW,304,2.0,2.0,95,0.00,,,0.00,Wunderground v.1.15,2013-03-08 12:04:00,
2013-03-08 07:09:00,25.0,23.5,30.16,NW,304,0.0,2.0,94,0.00,,,0.00,Wunderground v.1.15,2013-03-08 12:09:00,
2013-03-08 07:14:00,25.1,23.9,30.17,NW,304,0.0,1.0,95,0.00,,,0.00,Wunderground v.1.15,2013-03-08 12:14:00,
2013-03-08 07:19:00,25.1,23.9,30.17,NW,304,0.0,1.0,95,0.00,,,0.00,Wunderground v.1.15,2013-03-08 12:19:00,
2013-03-08 07:24:00,25.3,24.1,30.17,NW,304,0.0,0.0,95,0.00,,,0.00,Wunderground v.1.15,2013-03-08 12:24:00,
2013-03-08 07:29:00,25.6,24.4,30.17,NW,304,0.0,0.0,95,0.00,,,0.00,Wunderground v.1.15,2013-03-08 12:29:00,
2013-03-08 07:34:00,25.8,24.6,30.17,NW,304,0.0,0.0,95,0.00,,,0.00,Wunderground v.1.15,2013-03-08 12:34:00,
2013-03-08 07:40:00,25.7,24.5,30.17,NW,304,1.0,1.0,95,0.00,,,0.00,Wunderground v.1.15,2013-03-08 12:40:00,
2013-03-08 07:46:00,26.2,25.0,30.18,NW,304,1.0,3.0,95,0.00,,,0.00,Wunderground v.1.15,2013-03-08 12:46:00,
2013-03-08 07:51:00,26.9,25.9,30.18,NW,304,2.0,12.0,96,0.00,,,0.00,Wunderground v.1.15,2013-03-08 12:51:00,
2013-03-08 07:56:00,27.6,26.6,30.18,NW,304,3.0,12.0,96,0.00,,,0.00,Wunderground v.1.15,2013-03-08 12:56:00,
2013-03-08 08:02:00,28.1,26.9,30.18,NW,304,5.0,9.0,95,0.00,,,0.00,Wunderground v.1.15,2013-03-08 13:02:00,
2013-03-08 08:07:00,28.5,27.0,30.18,NW,304,6.0,9.0,94,0.00,,,0.00,Wunderground v.1.15,2013-03-08 13:07:00,
2013-03-08 08:12:00,28.9,27.1,30.18,NW,304,4.0,8.0,93,0.00,,,0.00,Wunderground v.1.15,2013-03-08 13:12:00,
2013-03-08 08:17:00,29.2,27.2,30.18,WNW,298,4.0,8.0,92,0.00,,,0.00,Wunderground v.1.15,2013-03-08 13:17:00,
2013-03-08 08:22:00,29.4,27.1,30.18,WNW,298,5.0,6.0,91,0.00,,,0.00,Wunderground v.1.15,2013-03-08 13:22:00,
2013-03-08 08:27:00,29.9,27.3,30.19,WNW,302,6.0,7.0,90,0.00,,,0.00,Wunderground v.1.15,2013-03-08 13:27:00,
2013-03-08 08:32:00,30.1,27.3,30.19,NNW,330,5.0,15.0,89,0.00,,,0.00,Wunderground v.1.15,2013-03-08 13:32:00,
2013-03-08 08:37:00,30.5,27.6,30.19,NW,319,5.0,15.0,89,0.00,,,0.00,Wunderground v.1.15,2013-03-08 13:37:00,
2013-03-08 08:43:00,30.2,27.1,30.19,NW,308,7.0,9.0,88,0.00,,,0.00,Wunderground v.1.15,2013-03-08 13:43:00,
2013-03-08 08:49:00,29.8,27.0,30.19,NNW,344,7.0,9.0,89,0.00,,,0.00,Wunderground v.1.15,2013-03-08 13:49:00,
2013-03-08 08:54:00,29.6,27.0,30.19,NNW,332,7.0,10.0,90,0.00,,,0.00,Wunderground v.1.15,2013-03-08 13:54:00,
2013-03-08 08:59:00,29.5,27.2,30.19,NNW,332,7.0,10.0,91,0.00,,,0.00,Wunderground v.1.15,2013-03-08 13:59:00,
2013-03-08 09:04:00,29.6,27.6,30.19,NNW,332,7.0,10.0,92,0.00,,,0.00,Wunderground v.1.15,2013-03-08 14:04:00,
2013-03-08 09:09:00,30.3,28.3,30.19,NNW,332,5.0,10.0,92,0.00,,,0.00,Wunderground v.1.15,2013-03-08 14:09:00,
2013-03-08 09:15:00,31.5,28.9,30.20,NW,321,6.0,12.0,90,0.00,,,0.00,Wunderground v.1.15,2013-03-08 14:15:00,
2013-03-08 09:20:00,32.4,29.2,30.20,NW,312,9.0,14.0,88,0.00,,,0.00,Wunderground v.1.15,2013-03-08 14:20:00,
2013-03-08 09:25:00,33.2,29.5,30.20,NW,314,10.0,14.0,86,0.00,,,0.00,Wunderground v.1.15,2013-03-08 14:25:00,
2013-03-08 09:30:00,33.7,30.0,30.19,NW,312,8.0,8.0,86,0.00,,,0.00,Wunderground v.1.15,2013-03-08 14:30:00,
2013-03-08 09:35:00,34.3,30.5,30.19,NW,306,7.0,12.0,86,0.00,,,0.00,Wunderground v.1.15,2013-03-08 14:35:00,
2013-03-08 09:40:00,35.5,30.8,30.19,NW,313,9.0,10.0,83,0.00,,,0.00,Wunderground v.1.15,2013-03-08 14:40:00,
2013-03-08 09:45:00,36.3,30.7,30.19,WNW,292,10.0,12.0,80,0.00,,,0.00,Wunderground v.1.15,2013-03-08 14:45:00,
2013-03-08 09:51:00,37.0,30.8,30.19,NNW,329,9.0,9.0,78,0.00,,,0.00,Wunderground v.1.15,2013-03-08 14:51:00,
2013-03-08 09:56:00,37.5,31.6,30.19,NW,325,7.0,9.0,79,0.00,,,0.00,Wunderground v.1.15,2013-03-08 14:56:00,
2013-03-08 10:02:00,37.7,31.1,30.19,NNW,335,8.0,8.0,77,0.00,,,0.00,Wunderground v.1.15,2013-03-08 15:02:00,
2013-03-08 10:07:00,37.4,30.8,30.19,NW,320,9.0,11.0,77,0.00,,,0.00,Wunderground v.1.15,2013-03-08 15:07:00,
2013-03-08 10:12:00,37.3,31.1,30.19,NW,326,8.0,8.0,78,0.00,,,0.00,Wunderground v.1.15,2013-03-08 15:12:00,
2013-03-08 10:18:00,37.8,31.2,30.19,NW,325,7.0,9.0,77,0.00,,,0.00,Wunderground v.1.15,2013-03-08 15:18:00,
2013-03-08 10:23:00,38.4,30.2,30.19,NNW,331,8.0,12.0,72,0.00,,,0.00,Wunderground v.1.15,2013-03-08 15:23:00,
2013-03-08 10:28:00,39.1,30.1,30.18,WNW,293,10.0,14.0,70,0.00,,,0.00,Wunderground v.1.15,2013-03-08 15:28:00,
2013-03-08 10:33:00,39.5,30.2,30.18,NNW,329,13.0,16.0,69,0.00,,,0.00,Wunderground v.1.15,2013-03-08 15:33:00,
2013-03-08 10:38:00,40.2,28.2,30.18,NNW,329,14.0,18.0,62,0.00,,,0.00,Wunderground v.1.15,2013-03-08 15:38:00,
2013-03-08 10:44:00,40.9,28.9,30.18,NW,321,14.0,20.0,62,0.00,,,0.00,Wunderground v.1.15,2013-03-08 15:44:00,
2013-03-08 10:49:00,41.4,28.1,30.18,NNW,329,14.0,22.0,59,0.00,,,0.00,Wunderground v.1.15,2013-03-08 15:49:00,
2013-03-08 10:55:00,42.3,27.7,30.18,NW,306,15.0,19.0,56,0.00,,,0.00,Wunderground v.1.15,2013-03-08 15:55:00,
2013-03-08 11:00:00,43.0,27.9,30.18,WNW,300,15.0,15.0,55,0.00,,,0.00,Wunderground v.1.15,2013-03-08 16:00:00,
2013-03-08 11:05:00,43.7,26.3,30.18,NW,315,13.0,22.0,50,0.00,,,0.00,Wunderground v.1.15,2013-03-08 16:05:00,
2013-03-08 11:10:00,43.9,26.4,30.18,WNW,297,15.0,15.0,50,0.00,,,0.00,Wunderground v.1.15,2013-03-08 16:10:00,
2013-03-08 11:15:00,44.3,26.8,30.17,NW,319,16.0,17.0,50,0.00,,,0.00,Wunderground v.1.15,2013-03-08 16:15:00,
2013-03-08 11:20:00,44.5,26.5,30.17,NNW,335,14.0,14.0,49,0.00,,,0.00,Wunderground v.1.15,2013-03-08 16:20:00,
2013-03-08 11:25:00,45.0,27.5,30.17,NW,322,13.0,15.0,50,0.00,,,0.00,Wunderground v.1.15,2013-03-08 16:25:00,
2013-03-08 11:31:00,45.7,27.6,30.17,NW,323,14.0,14.0,49,0.00,,,0.00,Wunderground v.1.15,2013-03-08 16:31:00,
2013-03-08 11:36:00,46.1,27.5,30.17,NW,307,13.0,14.0,48,0.00,,,0.00,Wunderground v.1.15,2013-03-08 16:36:00,
2013-03-08 11:41:00,47.0,28.3,30.17,NNW,329,11.0,14.0,48,0.00,,,0.00,Wunderground v.1.15,2013-03-08 16:41:00,
2013-03-08 11:46:00,48.0,26.0,30.17,NW,318,11.0,18.0,42,0.00,,,0.00,Wunderground v.1.15,2013-03-08 16:46:00,
2013-03-08 11:51:00,48.5,24.6,30.17,NNW,333,12.0,12.0,39,0.00,,,0.00,Wunderground v.1.15,2013-03-08 16:51:00,
2013-03-08 11:57:00,49.2,22.7,30.16,NNW,329,12.0,20.0,35,0.00,,,0.00,Wunderground v.1.15,2013-03-08 16:57:00,
2013-03-08 12:02:00,49.9,23.3,30.16,NW,308,13.0,13.0,35,0.00,,,0.00,Wunderground v.1.15,2013-03-08 17:02:00,
2013-03-08 12:07:00,50.3,20.0,30.16,NNW,338,12.0,18.0,30,0.00,,,0.00,Wunderground v.1.15,2013-03-08 17:07:00,
2013-03-08 12:13:00,50.5,20.2,30.16,NW,324,11.0,13.0,30,0.00,,,0.00,Wunderground v.1.15,2013-03-08 17:13:00,
2013-03-08 12:18:00,51.0,20.6,30.16,NNW,328,10.0,18.0,30,0.00,,,0.00,Wunderground v.1.15,2013-03-08 17:18:00,
2013-03-08 12:23:00,52.1,17.3,30.16,NNW,328,11.0,23.0,25,0.00,,,0.00,Wunderground v.1.15,2013-03-08 17:23:00,
2013-03-08 12:28:00,51.9,17.1,30.15,NW,309,16.0,27.0,25,0.00,,,0.00,Wunderground v.1.15,2013-03-08 17:28:00,
2013-03-08 12:33:00,52.5,20.3,30.15,WNW,292,18.0,22.0,28,0.00,,,0.00,Wunderground v.1.15,2013-03-08 17:33:00,
2013-03-08 12:38:00,52.9,18.9,30.15,NW,312,16.0,25.0,26,0.00,,,0.00,Wunderground v.1.15,2013-03-08 17:38:00,
2013-03-08 12:44:00,52.8,16.9,30.15,WNW,298,17.0,24.0,24,0.00,,,0.00,Wunderground v.1.15,2013-03-08 17:44:00,
2013-03-08 12:49:00,52.6,15.8,30.15,NW,325,17.0,24.0,23,0.00,,,0.00,Wunderground v.1.15,2013-03-08 17:49:00,
2013-03-08 12:54:00,53.0,18.1,30.15,NNW,333,13.0,17.0,25,0.00,,,0.00,Wunderground v.1.15,2013-03-08 17:54:00,
2013-03-08 12:59:00,53.9,18.8,30.15,WNW,291,9.0,17.0,25,0.00,,,0.00,Wunderground v.1.15,2013-03-08 17:59:00,
2013-03-08 13:05:00,55.0,19.8,30.15,NNW,327,8.0,18.0,25,0.00,,,0.00,Wunderground v.1.15,2013-03-08 18:05:00,
2013-03-08 13:10:00,54.8,16.6,30.15,NNW,338,11.0,11.0,22,0.00,,,0.00,Wunderground v.1.15,2013-03-08 18:10:00,
2013-03-08 13:16:00,54.7,15.5,30.14,NW,320,13.0,24.0,21,0.00,,,0.00,Wunderground v.1.15,2013-03-08 18:16:00,
2013-03-08 13:21:00,55.1,17.9,30.14,NW,319,12.0,12.0,23,0.00,,,0.00,Wunderground v.1.15,2013-03-08 18:21:00,
2013-03-08 13:26:00,55.8,18.5,30.14,NW,321,12.0,21.0,23,0.00,,,0.00,Wunderground v.1.15,2013-03-08 18:26:00,
2013-03-08 13:31:00,56.0,19.7,30.14,NNW,341,13.0,14.0,24,0.00,,,0.00,Wunderground v.1.15,2013-03-08 18:31:00,
2013-03-08 13:36:00,56.0,17.6,30.14,NNW,327,14.0,15.0,22,0.00,,,0.00,Wunderground v.1.15,2013-03-08 18:36:00,
2013-03-08 13:42:00,56.2,18.8,30.13,NW,315,19.0,27.0,23,0.00,,,0.00,Wunderground v.1.15,2013-03-08 18:42:00,
2013-03-08 13:47:00,56.4,18.0,30.13,NW,305,17.0,27.0,22,0.00,,,0.00,Wunderground v.1.15,2013-03-08 18:47:00,
2013-03-08 13:52:00,56.7,18.2,30.13,WNW,301,13.0,24.0,22,0.00,,,0.00,Wunderground v.1.15,2013-03-08 18:52:00,
2013-03-08 13:58:00,56.8,17.2,30.13,NW,322,17.0,24.0,21,0.00,,,0.00,Wunderground v.1.15,2013-03-08 18:58:00,
2013-03-08 14:03:00,56.4,15.8,30.13,NNW,329,19.0,26.0,20,0.00,,,0.00,Wunderground v.1.15,2013-03-08 19:03:00,
2013-03-08 14:08:00,56.5,17.0,30.13,NW,318,18.0,26.0,21,0.00,,,0.00,Wunderground v.1.15,2013-03-08 19:08:00,
2013-03-08 14:13:00,57.1,17.5,30.12,NW,315,14.0,17.0,21,0.00,,,0.00,Wunderground v.1.15,2013-03-08 19:13:00,
2013-03-08 14:18:00,57.7,15.7,30.12,NW,318,13.0,18.0,19,0.00,,,0.00,Wunderground v.1.15,2013-03-08 19:18:00,
2013-03-08 14:24:00,57.8,15.7,30.12,NNW,333,14.0,21.0,19,0.00,,,0.00,Wunderground v.1.15,2013-03-08 19:24:00,
2013-03-08 14:29:00,58.1,17.2,30.11,NW,313,12.0,21.0,20,0.00,,,0.00,Wunderground v.1.15,2013-03-08 19:29:00,
2013-03-08 14:34:00,58.5,17.5,30.11,NW,319,14.0,22.0,20,0.00,,,0.00,Wunderground v.1.15,2013-03-08 19:34:00,
2013-03-08 14:39:00,58.6,16.4,30.11,NW,320,16.0,22.0,19,0.00,,,0.00,Wunderground v.1.15,2013-03-08 19:39:00,
2013-03-08 14:44:00,58.8,17.8,30.11,NW,317,16.0,28.0,20,0.00,,,0.00,Wunderground v.1.15,2013-03-08 19:44:00,
2013-03-08 14:49:00,59.0,16.7,30.11,NW,312,18.0,28.0,19,0.00,,,0.00,Wunderground v.1.15,2013-03-08 19:49:00,
2013-03-08 14:55:00,59.0,16.7,30.11,NNW,329,18.0,26.0,19,0.00,,,0.00,Wunderground v.1.15,2013-03-08 19:55:00,
2013-03-08 15:00:00,58.7,16.5,30.10,NW,322,18.0,18.0,19,0.00,,,0.00,Wunderground v.1.15,2013-03-08 20:00:00,
2013-03-08 15:05:00,59.0,17.9,30.10,NNW,328,17.0,20.0,20,0.00,,,0.00,Wunderground v.1.15,2013-03-08 20:05:00,
2013-03-08 15:10:00,59.3,18.2,30.10,NW,309,15.0,16.0,20,0.00,,,0.00,Wunderground v.1.15,2013-03-08 20:10:00,
2013-03-08 15:15:00,59.7,17.3,30.10,NW,317,14.0,20.0,19,0.00,,,0.00,Wunderground v.1.15,2013-03-08 20:15:00,
2013-03-08 15:20:00,59.7,17.3,30.10,NNW,327,14.0,14.0,19,0.00,,,0.00,Wunderground v.1.15,2013-03-08 20:20:00,
2013-03-08 15:25:00,59.3,17.0,30.10,WNW,292,13.0,23.0,19,0.00,,,0.00,Wunderground v.1.15,2013-03-08 20:25:00,
2013-03-08 15:31:00,59.3,18.2,30.10,West,280,12.0,12.0,20,0.00,,,0.00,Wunderground v.1.15,2013-03-08 20:31:00,
2013-03-08 15:36:00,59.9,18.7,30.10,WNW,298,11.0,19.0,20,0.00,,,0.00,Wunderground v.1.15,2013-03-08 20:36:00,
2013-03-08 15:41:00,60.2,16.5,30.10,NNW,329,11.0,11.0,18,0.00,,,0.00,Wunderground v.1.15,2013-03-08 20:41:00,
2013-03-08 15:47:00,59.9,17.5,30.09,WNW,292,13.0,20.0,19,0.00,,,0.00,Wunderground v.1.15,2013-03-08 20:47:00,
2013-03-08 15:52:00,59.6,17.2,30.09,NNW,336,13.0,13.0,19,0.00,,,0.00,Wunderground v.1.15,2013-03-08 20:52:00,
2013-03-08 15:57:00,59.5,17.1,30.09,WNW,299,11.0,15.0,19,0.00,,,0.00,Wunderground v.1.15,2013-03-08 20:57:00,
2013-03-08 16:02:00,59.5,17.1,30.09,NW,316,11.0,13.0,19,0.00,,,0.00,Wunderground v.1.15,2013-03-08 21:02:00,
2013-03-08 16:08:00,59.6,16.0,30.09,North,360,8.0,14.0,18,0.00,,,0.00,Wunderground v.1.15,2013-03-08 21:08:00,
2013-03-08 16:13:00,59.7,13.4,30.09,NW,319,7.0,10.0,16,0.00,,,0.00,Wunderground v.1.15,2013-03-08 21:13:00,
2013-03-08 16:18:00,59.5,17.1,30.09,NW,326,5.0,10.0,19,0.00,,,0.00,Wunderground v.1.15,2013-03-08 21:18:00,
2013-03-08 16:23:00,60.0,15.0,30.09,NW,325,6.0,22.0,17,0.00,,,0.00,Wunderground v.1.15,2013-03-08 21:23:00,
2013-03-08 16:28:00,59.7,16.1,30.08,NW,306,9.0,22.0,18,0.00,,,0.00,Wunderground v.1.15,2013-03-08 21:28:00,
2013-03-08 16:33:00,59.6,14.7,30.08,NW,320,8.0,15.0,17,0.00,,,0.00,Wunderground v.1.15,2013-03-08 21:33:00,
2013-03-08 16:38:00,59.8,14.8,30.08,WNW,298,9.0,16.0,17,0.00,,,0.00,Wunderground v.1.15,2013-03-08 21:38:00,
2013-03-08 16:43:00,59.9,14.9,30.09,NW,320,9.0,12.0,17,0.00,,,0.00,Wunderground v.1.15,2013-03-08 21:43:00,
2013-03-08 16:49:00,59.5,13.2,30.09,NW,309,11.0,20.0,16,0.00,,,0.00,Wunderground v.1.15,2013-03-08 21:49:00,
2013-03-08 16:54:00,59.5,13.2,30.09,NNW,333,13.0,13.0,16,0.00,,,0.00,Wunderground v.1.15,2013-03-08 21:54:00,
2013-03-08 16:59:00,59.2,14.3,30.08,NNW,328,9.0,13.0,17,0.00,,,0.00,Wunderground v.1.15,2013-03-08 21:59:00,
2013-03-08 17:04:00,59.2,14.3,30.08,NW,326,7.0,9.0,17,0.00,,,0.00,Wunderground v.1.15,2013-03-08 22:04:00,
2013-03-08 17:09:00,59.0,14.2,30.08,NW,324,7.0,9.0,17,0.00,,,0.00,Wunderground v.1.15,2013-03-08 22:09:00,
2013-03-08 17:14:00,58.6,15.2,30.09,NW,324,6.0,7.0,18,0.00,,,0.00,Wunderground v.1.15,2013-03-08 22:14:00,
2013-03-08 17:19:00,58.0,12.0,30.09,NW,309,7.0,16.0,16,0.00,,,0.00,Wunderground v.1.15,2013-03-08 22:19:00,
2013-03-08 17:24:00,57.8,13.2,30.09,NW,308,8.0,8.0,17,0.00,,,0.00,Wunderground v.1.15,2013-03-08 22:24:00,
2013-03-08 17:30:00,57.6,13.0,30.09,NW,307,5.0,5.0,17,0.00,,,0.00,Wunderground v.1.15,2013-03-08 22:30:00,
2013-03-08 17:35:00,57.3,12.8,30.09,NW,307,4.0,5.0,17,0.00,,,0.00,Wunderground v.1.15,2013-03-08 22:35:00,
2013-03-08 17:40:00,57.2,12.7,30.09,NW,307,2.0,9.0,17,0.00,,,0.00,Wunderground v.1.15,2013-03-08 22:40:00,
2013-03-08 17:46:00,56.9,13.8,30.09,NW,310,6.0,9.0,18,0.00,,,0.00,Wunderground v.1.15,2013-03-08 22:46:00,
2013-03-08 17:51:00,56.8,13.7,30.09,NW,309,7.0,8.0,18,0.00,,,0.00,Wunderground v.1.15,2013-03-08 22:51:00,
2013-03-08 17:56:00,56.6,14.8,30.09,NW,309,5.0,8.0,19,0.00,,,0.00,Wunderground v.1.15,2013-03-08 22:56:00,
2013-03-08 18:01:00,56.3,15.7,30.09,NW,309,5.0,6.0,20,0.00,,,0.00,Wunderground v.1.15,2013-03-08 23:01:00,
2013-03-08 18:07:00,56.1,14.3,30.09,NW,309,5.0,8.0,19,0.00,,,0.00,Wunderground v.1.15,2013-03-08 23:07:00,
2013-03-08 18:12:00,55.9,12.9,30.10,NW,309,5.0,6.0,18,0.00,,,0.00,Wunderground v.1.15,2013-03-08 23:12:00,
2013-03-08 18:17:00,55.7,17.4,30.10,NW,307,5.0,6.0,22,0.00,,,0.00,Wunderground v.1.15,2013-03-08 23:17:00,
2013-03-08 18:22:00,55.5,13.8,30.10,NW,307,2.0,3.0,19,0.00,,,0.00,Wunderground v.1.15,2013-03-08 23:22:00,
2013-03-08 18:28:00,55.3,13.7,30.10,NW,307,0.0,3.0,19,0.00,,,0.00,Wunderground v.1.15,2013-03-08 23:28:00,
2013-03-08 18:33:00,55.0,14.6,30.10,NW,307,1.0,6.0,20,0.00,,,0.00,Wunderground v.1.15,2013-03-08 23:33:00,
2013-03-08 18:38:00,54.7,14.4,30.10,NW,307,2.0,6.0,20,0.00,,,0.00,Wunderground v.1.15,2013-03-08 23:38:00,
2013-03-08 18:43:00,54.5,15.3,30.11,NW,307,3.0,6.0,21,0.00,,,0.00,Wunderground v.1.15,2013-03-08 23:43:00,
2013-03-08 18:49:00,54.1,15.0,30.11,NW,307,5.0,8.0,21,0.00,,,0.00,Wunderground v.1.15,2013-03-08 23:49:00,
2013-03-08 18:54:00,53.9,14.8,30.11,WNW,288,6.0,10.0,21,0.00,,,0.00,Wunderground v.1.15,2013-03-08 23:54:00,
2013-03-08 18:59:00,53.8,14.7,30.11,WNW,288,5.0,10.0,21,0.00,,,0.00,Wunderground v.1.15,2013-03-08 23:59:00,
2013-03-08 19:04:00,53.6,14.5,30.11,WNW,288,2.0,4.0,21,0.00,,,0.00,Wunderground v.1.15,2013-03-09 00:04:00,
2013-03-08 19:09:00,53.5,13.4,30.11,WNW,288,0.0,4.0,20,0.00,,,0.00,Wunderground v.1.15,2013-03-09 00:09:00,
2013-03-08 19:14:00,53.2,13.1,30.12,WNW,288,0.0,0.0,20,0.00,,,0.00,Wunderground v.1.15,2013-03-09 00:14:00,
2013-03-08 19:20:00,52.2,16.4,30.12,WNW,288,0.0,0.0,24,0.00,,,0.00,Wunderground v.1.15,2013-03-09 00:20:00,
2013-03-08 19:25:00,51.7,18.7,30.12,West,281,1.0,4.0,27,0.00,,,0.00,Wunderground v.1.15,2013-03-09 00:25:00,
2013-03-08 19:30:00,51.7,21.2,30.12,ESE,123,3.0,3.0,30,0.00,,,0.00,Wunderground v.1.15,2013-03-09 00:30:00,
2013-03-08 19:35:00,51.7,22.0,30.12,WSW,246,3.0,6.0,31,0.00,,,0.00,Wunderground v.1.15,2013-03-09 00:35:00,
2013-03-08 19:40:00,51.7,23.5,30.12,WSW,246,0.0,0.0,33,0.00,,,0.00,Wunderground v.1.15,2013-03-09 00:40:00,
2013-03-08 19:46:00,51.5,23.3,30.13,WSW,246,0.0,0.0,33,0.00,,,0.00,Wunderground v.1.15,2013-03-09 00:46:00,
2013-03-08 19:51:00,51.2,23.0,30.13,WSW,246,0.0,0.0,33,0.00,,,0.00,Wunderground v.1.15,2013-03-09 00:51:00,
2013-03-08 19:56:00,50.7,22.6,30.13,WSW,246,0.0,0.0,33,0.00,,,0.00,Wunderground v.1.15,2013-03-09 00:56:00,
2013-03-08 20:01:00,50.3,20.8,30.13,WSW,246,0.0,0.0,31,0.00,,,0.00,Wunderground v.1.15,2013-03-09 01:01:00,
2013-03-08 20:06:00,49.7,21.0,30.13,WSW,247,1.0,6.0,32,0.00,,,0.00,Wunderground v.1.15,2013-03-09 01:06:00,
2013-03-08 20:12:00,49.0,21.8,30.13,WSW,247,3.0,4.0,34,0.00,,,0.00,Wunderground v.1.15,2013-03-09 01:12:00,
2013-03-08 20:17:00,48.6,22.1,30.13,WSW,247,1.0,4.0,35,0.00,,,0.00,Wunderground v.1.15,2013-03-09 01:17:00,
2013-03-08 20:22:00,48.3,23.8,30.13,WSW,247,0.0,1.0,38,0.00,,,0.00,Wunderground v.1.15,2013-03-09 01:22:00,
2013-03-08 20:27:00,47.9,21.5,30.13,WSW,247,0.0,1.0,35,0.00,,,0.00,Wunderground v.1.15,2013-03-09 01:27:00,
2013-03-08 20:32:00,47.6,22.6,30.13,WSW,247,0.0,0.0,37,0.00,,,0.00,Wunderground v.1.15,2013-03-09 01:32:00,
2013-03-08 20:37:00,47.4,22.4,30.13,WSW,247,0.0,0.0,37,0.00,,,0.00,Wunderground v.1.15,2013-03-09 01:37:00,
2013-03-08 20:42:00,47.4,24.3,30.13,WSW,247,0.0,0.0,40,0.00,,,0.00,Wunderground v.1.15,2013-03-09 01:42:00,
2013-03-08 20:48:00,47.7,23.3,30.13,WSW,247,0.0,1.0,38,0.00,,,0.00,Wunderground v.1.15,2013-03-09 01:48:00,
2013-03-08 20:53:00,47.8,23.4,30.13,WSW,247,0.0,0.0,38,0.00,,,0.00,Wunderground v.1.15,2013-03-09 01:53:00,
2013-03-08 20:58:00,47.6,19.9,30.14,WSW,247,0.0,0.0,33,0.00,,,0.00,Wunderground v.1.15,2013-03-09 01:58:00,
2013-03-08 21:03:00,47.0,22.7,30.14,WSW,247,0.0,0.0,38,0.00,,,0.00,Wunderground v.1.15,2013-03-09 02:03:00,
2013-03-08 21:08:00,46.1,21.9,30.14,WSW,247,0.0,0.0,38,0.00,,,0.00,Wunderground v.1.15,2013-03-09 02:08:00,
2013-03-08 21:13:00,45.3,23.0,30.14,WSW,247,0.0,0.0,41,0.00,,,0.00,Wunderground v.1.15,2013-03-09 02:13:00,
2013-03-08 21:18:00,44.7,22.4,30.14,WSW,247,0.0,0.0,41,0.00,,,0.00,Wunderground v.1.15,2013-03-09 02:18:00,
2013-03-08 21:24:00,44.3,22.6,30.14,WSW,247,0.0,1.0,42,0.00,,,0.00,Wunderground v.1.15,2013-03-09 02:24:00,
2013-03-08 21:29:00,44.0,22.9,30.14,WSW,247,0.0,2.0,43,0.00,,,0.00,Wunderground v.1.15,2013-03-09 02:29:00,
2013-03-08 21:34:00,43.5,22.5,30.14,WSW,247,1.0,1.0,43,0.00,,,0.00,Wunderground v.1.15,2013-03-09 02:34:00,
2013-03-08 21:40:00,43.3,21.7,30.14,WSW,247,0.0,0.0,42,0.00,,,0.00,Wunderground v.1.15,2013-03-09 02:40:00,
2013-03-08 21:46:00,43.3,22.3,30.14,WSW,247,0.0,4.0,43,0.00,,,0.00,Wunderground v.1.15,2013-03-09 02:46:00,
2013-03-08 21:51:00,43.3,21.7,30.14,WSW,247,0.0,0.0,42,0.00,,,0.00,Wunderground v.1.15,2013-03-09 02:51:00,
2013-03-08 21:56:00,43.3,22.3,30.14,WSW,247,0.0,0.0,43,0.00,,,0.00,Wunderground v.1.15,2013-03-09 02:56:00,
2013-03-08 22:01:00,43.2,22.7,30.15,WSW,247,1.0,6.0,44,0.00,,,0.00,Wunderground v.1.15,2013-03-09 03:01:00,
2013-03-08 22:06:00,42.6,22.2,30.15,WNW,294,5.0,10.0,44,0.00,,,0.00,Wunderground v.1.15,2013-03-09 03:06:00,
2013-03-08 22:12:00,42.0,22.2,30.15,WNW,294,7.0,7.0,45,0.00,,,0.00,Wunderground v.1.15,2013-03-09 03:12:00,
2013-03-08 22:17:00,41.6,21.8,30.15,WNW,294,3.0,7.0,45,0.00,,,0.00,Wunderground v.1.15,2013-03-09 03:17:00,
2013-03-08 22:23:00,41.1,21.9,30.15,WNW,294,4.0,8.0,46,0.00,,,0.00,Wunderground v.1.15,2013-03-09 03:23:00,
2013-03-08 22:28:00,40.8,22.1,30.14,WNW,294,5.0,8.0,47,0.00,,,0.00,Wunderground v.1.15,2013-03-09 03:28:00,
2013-03-08 22:33:00,40.6,20.9,30.14,WNW,294,3.0,4.0,45,0.00,,,0.00,Wunderground v.1.15,2013-03-09 03:33:00,
2013-03-08 22:38:00,40.6,20.9,30.14,WNW,294,1.0,4.0,45,0.00,,,0.00,Wunderground v.1.15,2013-03-09 03:38:00,
2013-03-08 22:43:00,40.7,21.5,30.15,WNW,294,0.0,0.0,46,0.00,,,0.00,Wunderground v.1.15,2013-03-09 03:43:00,
2013-03-08 22:48:00,40.7,22.0,30.15,WNW,294,0.0,0.0,47,0.00,,,0.00,Wunderground v.1.15,2013-03-09 03:48:00,
2013-03-08 22:54:00,40.7,21.5,30.15,WNW,294,0.0,0.0,46,0.00,,,0.00,Wunderground v.1.15,2013-03-09 03:54:00,
2013-03-08 22:59:00,40.7,21.0,30.15,WNW,294,0.0,0.0,45,0.00,,,0.00,Wunderground v.1.15,2013-03-09 03:59:00,
2013-03-08 23:04:00,40.7,21.0,30.15,WNW,294,0.0,0.0,45,0.00,,,0.00,Wunderground v.1.15,2013-03-09 04:04:00,
2013-03-08 23:10:00,40.6,20.4,30.15,WNW,294,0.0,0.0,44,0.00,,,0.00,Wunderground v.1.15,2013-03-09 04:10:00,
2013-03-08 23:15:00,40.7,19.9,30.15,WNW,294,0.0,0.0,43,0.00,,,0.00,Wunderground v.1.15,2013-03-09 04:15:00,
2013-03-08 23:20:00,40.6,21.4,30.15,WNW,294,0.0,0.0,46,0.00,,,0.00,Wunderground v.1.15,2013-03-09 04:20:00,
2013-03-08 23:25:00,40.1,22.0,30.15,WNW,294,0.0,0.0,48,0.00,,,0.00,Wunderground v.1.15,2013-03-09 04:25:00,
2013-03-08 23:30:00,39.6,22.9,30.15,WNW,294,0.0,0.0,51,0.00,,,0.00,Wunderground v.1.15,2013-03-09 04:30:00,
2013-03-08 23:36:00,39.2,23.0,30.15,WNW,294,0.0,0.0,52,0.00,,,0.00,Wunderground v.1.15,2013-03-09 04:36:00,
2013-03-08 23:41:00,39.3,22.2,30.15,WNW,294,0.0,0.0,50,0.00,,,0.00,Wunderground v.1.15,2013-03-09 04:41:00,
2013-03-08 23:46:00,39.5,22.8,30.15,WNW,294,0.0,0.0,51,0.00,,,0.00,Wunderground v.1.15,2013-03-09 04:46:00,
2013-03-08 23:51:00,39.5,22.4,30.15,WNW,294,0.0,0.0,50,0.00,,,0.00,Wunderground v.1.15,2013-03-09 04:51:00,
2013-03-08 23:56:00,39.4,22.3,30.15,WNW,294,0.0,0.0,50,0.00,,,0.00,Wunderground v.1.15,2013-03-09 04:56:00,